Content
SEND FEEDBACK

Daily
Averages
Monthly
Summary
United States of America

ANN ARBOR, MICHIGAN


Home > North America > United States > Michigan
Elevation: 231 meters     Latitude: 42 17N     Longitude: 083 43W

WEATHER
 
SELECT A DAY
Number of Records: 203,168;   Date Range: 1/1/95 - 7/22/14
 
SHARE

PRINT THIS DATA

[ ← Previous Day ]
WEATHER ALMANAC - 1 APRIL, 2013
[ Next Day → ]
[ °F ]   °C
Weather ElementAverageHighLow
Temperature0.5 °C3.9 °C (2:53 pm)-3.3 °C (11:53 pm)
Dewpoint-9.9 °C-3 °C (2:51 am)-12.2 °C (12:53 pm)
Humidity47.5 %73 % (2:53 am)30 % (2:53 pm)
Barometer1014.6 hPa1020 hPa (10:53 pm)1006.8 hPa (1:53 am)
Wind Speed21.2 km/h31.5 km/h (4:53 pm)
Wind Gust42.6 km/h (2:53 pm)
Weather ElementAverage
Visibility16.1 km
Wind DirectionNW (311.7 °)

Weather ElementTotal
Precipitation---
Heating Degree Days18.1 (Base 18.3)
Averaged from 24 records on 1 April, 2013
WEATHER CONDITIONS BREAKOUT
WIND DIRECTION BREAKOUT
WEATHER BY HOUR - 1 APRIL, 2013
[ °F ]   °C
Local TimeTemperatureDewpointHumidityBarometerVisibilityWind DirectionWind SpeedGust SpeedPrecipitationEventsConditions
1:53 AM2.8 °C-3.3 °C65 %1006.8 hPa16.1 kmWNW (300°)16.7 km/hClear
2:51 AM2 °C-3 °C70 %1007.5 hPa16.1 kmNNW (340°)24.1 km/h37 km/hMostly Cloudy
2:53 AM1.1 °C-3.3 °C73 %1007.8 hPa16.1 kmNNW (340°)20.4 km/h35.2 km/hMostly Cloudy
3:53 AM1.1 °C-5 °C64 %1008.8 hPa16.1 kmNNW (340°)22.2 km/h31.5 km/h0 mmSnowLight Snow
4:53 AM0 °C-7.2 °C59 %1009.8 hPa16.1 kmNW (320°)16.7 km/h33.3 km/h0 mmScattered Clouds
5:53 AM-1.1 °C-10.6 °C49 %1011.2 hPa16.1 kmNNW (330°)16.7 km/h33.3 km/hClear
6:53 AM-1.7 °C-10 °C54 %1012.2 hPa16.1 kmNW (320°)13 km/hClear
7:53 AM-1.7 °C-9.4 °C56 %1013.5 hPa16.1 kmNW (320°)13 km/h25.9 km/hClear
8:53 AM-0.6 °C-11.1 °C46 %1014.2 hPa16.1 kmNW (320°)29.6 km/h35.2 km/hClear
9:53 AM0.6 °C-10.6 °C43 %1014.9 hPa16.1 kmWNW (300°)22.2 km/h31.5 km/hMostly Cloudy
10:53 AM0 °C-11.1 °C44 %1015.6 hPa16.1 kmNW (310°)20.4 km/h35.2 km/hMostly Cloudy
11:53 AM1.1 °C-11.7 °C38 %1015.9 hPa16.1 kmNW (310°)22.2 km/h33.3 km/hMostly Cloudy
12:53 PM2.8 °C-12.2 °C33 %1016.3 hPa16.1 kmWNW (290°)27.8 km/h40.7 km/hMostly Cloudy
1:53 PM2.8 °C-11.7 °C34 %1016.3 hPa16.1 kmNW (310°)29.6 km/h37 km/hMostly Cloudy
2:53 PM3.9 °C-12.2 °C30 %1016.3 hPa16.1 kmNW (320°)24.1 km/h42.6 km/hMostly Cloudy
3:53 PM2.8 °C-11.7 °C34 %1016.3 hPa16.1 kmNW (310°)24.1 km/h38.9 km/hMostly Cloudy
4:53 PM2.8 °C-12.2 °C33 %1016.6 hPa16.1 kmWest (280°)31.5 km/h40.7 km/hMostly Cloudy
5:53 PM2.2 °C-11.1 °C37 %1017.3 hPa16.1 kmNW (310°)24.1 km/h37 km/hOvercast
6:53 PM0.6 °C-11.1 °C42 %1017.9 hPa16.1 kmNW (310°)16.7 km/h38.9 km/hOvercast
7:53 PM-0.6 °C-12.2 °C42 %1018.6 hPa16.1 kmWNW (290°)24.1 km/h35.2 km/hOvercast
8:53 PM-1.1 °C-12.2 °C43 %1019.3 hPa16.1 kmWNW (300°)24.1 km/h35.2 km/hMostly Cloudy
9:53 PM-2.2 °C-11.7 °C49 %1019.6 hPa16.1 kmNW (310°)14.8 km/hPartly Cloudy
10:53 PM-2.8 °C-12.2 °C49 %1020 hPa16.1 kmWNW (300°)16.7 km/hClear
11:53 PM-3.3 °C-11.7 °C53 %1020 hPa16.1 kmWNW (300°)13 km/hClear
Hourly data recorded from KARB, located 0 kilometers away from Ann Arbor, Michigan







STORIES FROM OUR PARTNERS